When you browse on this site, cookies collect data to enhance your experience and personalize the content and advertising you see.
Visit our Privacy Policy to learn more. By continuing to use the site, you agree to this use of cookies and data.
  • en Suisse
  • Liste des pays
  • À 7 jours
  • Température de l'eau
  • Carte météo
  • Widgets météo
  • user-avatar
    Se connecter

    Météo par heure à Elbasan

    Ce jour, 17 Novembre, Dimanche

    Heure Température Précipitation Vent Pression Humidité
    00:00 +13°C° 0 mm 2 m/s 736 mmHg 80%
    01:00 +13°C° 0 mm 2 m/s 736 mmHg 80%
    02:00 +13°C° 0 mm 2 m/s 736 mmHg 80%
    03:00 +13°C° 0 mm 2 m/s 736 mmHg 80%
    04:00 +12°C° 0 mm 3 m/s 735 mmHg 81%
    05:00 +12°C° 0 mm 3 m/s 735 mmHg 81%
    06:00 +12°C° 0 mm 3 m/s 735 mmHg 80%
    07:00 +13°C° 0 mm 3 m/s 735 mmHg 78%
    08:00 +14°C° 0 mm 3 m/s 735 mmHg 73%
    09:00 +16°C° 0 mm 3 m/s 735 mmHg 69%
    10:00 +18°C° 0 mm 3 m/s 735 mmHg 64%
    11:00 +18°C° 0 mm 2 m/s 735 mmHg 60%
    12:00 +19°C° 0 mm 2 m/s 735 mmHg 56%
    13:00 +20°C° 0 mm 2 m/s 734 mmHg 53%
    14:00 +19°C° 0 mm 2 m/s 734 mmHg 56%
    15:00 +18°C° 0 mm 2 m/s 734 mmHg 60%
    16:00 +17°C° 0 mm 2 m/s 734 mmHg 63%
    17:00 +16°C° 0 mm 2 m/s 734 mmHg 65%
    18:00 +16°C° 0 mm 3 m/s 734 mmHg 67%
    19:00 +14°C° 0 mm 3 m/s 734 mmHg 69%
    20:00 +14°C° 0 mm 3 m/s 733 mmHg 70%
    21:00 +14°C° 0 mm 3 m/s 733 mmHg 72%
    22:00 +14°C° 0 mm 3 m/s 733 mmHg 73%
    23:00 +14°C° 0 mm 3 m/s 733 mmHg 74%

    Demain, 18 Novembre, Lundi

    Heure Température Précipitation Vent Pression Humidité
    00:00 +14°C° 0 mm 3 m/s 733 mmHg 74%
    01:00 +14°C° 0 mm 3 m/s 732 mmHg 75%
    02:00 +14°C° 3.1 mm 2 m/s 732 mmHg 81%
    03:00 +13°C° 3.1 mm 2 m/s 732 mmHg 88%
    04:00 +13°C° 3.1 mm 1 m/s 732 mmHg 95%
    05:00 +13°C° 0.9 mm 1 m/s 733 mmHg 93%
    06:00 +13°C° 0.9 mm 1 m/s 733 mmHg 91%
    07:00 +13°C° 0.9 mm 1 m/s 734 mmHg 90%
    08:00 +14°C° 0.1 mm 2 m/s 734 mmHg 84%
    09:00 +15°C° 0.1 mm 2 m/s 735 mmHg 78%
    10:00 +16°C° 0.1 mm 2 m/s 735 mmHg 72%
    11:00 +16°C° 0.2 mm 2 m/s 735 mmHg 71%
    12:00 +16°C° 0.2 mm 2 m/s 736 mmHg 70%
    13:00 +16°C° 0.2 mm 1 m/s 736 mmHg 69%
    14:00 +16°C° 0 mm 1 m/s 736 mmHg 73%
    15:00 +15°C° 0 mm 1 m/s 736 mmHg 76%
    16:00 +14°C° 0 mm 0 m/s 736 mmHg 79%
    17:00 +14°C° 0 mm 1 m/s 736 mmHg 80%
    18:00 +13°C° 0 mm 1 m/s 737 mmHg 80%
    19:00 +13°C° 0 mm 1 m/s 737 mmHg 81%
    20:00 +12°C° 0 mm 1 m/s 737 mmHg 80%
    21:00 +12°C° 0 mm 1 m/s 737 mmHg 79%
    22:00 +12°C° 0 mm 1 m/s 738 mmHg 78%
    23:00 +12°C° 0 mm 1 m/s 738 mmHg 77%

    Après-demain, 19 Novembre, Mardi

    Heure Température Précipitation Vent Pression Humidité
    00:00 +12°C° 0 mm 1 m/s 738 mmHg 77%
    01:00 +12°C° 0 mm 1 m/s 738 mmHg 77%
    02:00 +12°C° 0 mm 1 m/s 738 mmHg 77%
    03:00 +12°C° 0 mm 2 m/s 737 mmHg 77%
    04:00 +12°C° 0 mm 2 m/s 737 mmHg 77%
    05:00 +12°C° 0 mm 2 m/s 738 mmHg 77%
    06:00 +12°C° 0 mm 2 m/s 738 mmHg 78%
    07:00 +10°C° 0 mm 2 m/s 738 mmHg 78%
    08:00 +13°C° 0 mm 2 m/s 738 mmHg 73%
    09:00 +15°C° 0 mm 1 m/s 738 mmHg 68%
    10:00 +18°C° 0 mm 1 m/s 738 mmHg 64%
    11:00 +18°C° 0 mm 1 m/s 738 mmHg 61%
    12:00 +19°C° 0 mm 1 m/s 737 mmHg 59%
    13:00 +19°C° 0 mm 1 m/s 737 mmHg 56%
    14:00 +18°C° 0 mm 1 m/s 736 mmHg 62%
    15:00 +16°C° 0 mm 1 m/s 736 mmHg 67%
    16:00 +15°C° 0 mm 1 m/s 736 mmHg 73%
    17:00 +15°C° 0.7 mm 2 m/s 736 mmHg 77%
    18:00 +14°C° 0.7 mm 2 m/s 735 mmHg 82%
    19:00 +14°C° 0.7 mm 2 m/s 735 mmHg 86%
    20:00 +14°C° 1.8 mm 2 m/s 735 mmHg 88%
    21:00 +14°C° 1.8 mm 2 m/s 735 mmHg 90%
    22:00 +13°C° 1.8 mm 1 m/s 735 mmHg 92%
    23:00 +13°C° 2.1 mm 1 m/s 735 mmHg 94%

    20 Novembre, Mercredi

    Heure Température Précipitation Vent Pression Humidité
    00:00 +13°C° 2.1 mm 1 m/s 735 mmHg 95%
    01:00 +13°C° 2.1 mm 1 m/s 734 mmHg 96%
    02:00 +13°C° 1.7 mm 1 m/s 734 mmHg 95%
    03:00 +13°C° 1.7 mm 1 m/s 734 mmHg 94%
    04:00 +13°C° 1.7 mm 1 m/s 734 mmHg 94%
    05:00 +13°C° 1 mm 1 m/s 734 mmHg 92%
    06:00 +13°C° 1 mm 1 m/s 734 mmHg 89%
    07:00 +13°C° 1 mm 1 m/s 734 mmHg 87%
    08:00 +14°C° 0.5 mm 1 m/s 734 mmHg 82%
    09:00 +15°C° 0.5 mm 1 m/s 734 mmHg 76%
    10:00 +15°C° 0.5 mm 2 m/s 735 mmHg 71%
    11:00 +16°C° 0.5 mm 2 m/s 735 mmHg 69%
    12:00 +16°C° 0.5 mm 2 m/s 734 mmHg 67%
    13:00 +16°C° 0.5 mm 3 m/s 734 mmHg 66%
    14:00 +15°C° 0.3 mm 2 m/s 734 mmHg 71%
    15:00 +14°C° 0.3 mm 2 m/s 734 mmHg 77%
    16:00 +14°C° 0.3 mm 1 m/s 734 mmHg 82%
    17:00 +13°C° 0.1 mm 1 m/s 735 mmHg 84%
    18:00 +13°C° 0.1 mm 1 m/s 735 mmHg 85%
    19:00 +12°C° 0.1 mm 1 m/s 735 mmHg 87%
    20:00 +12°C° 0 mm 1 m/s 735 mmHg 87%
    21:00 +12°C° 0 mm 1 m/s 736 mmHg 86%
    22:00 +11°C° 0 mm 1 m/s 736 mmHg 86%
    23:00 +11°C° 0 mm 1 m/s 736 mmHg 86%

    21 Novembre, Jeudi

    Heure Température Précipitation Vent Pression Humidité
    00:00 +11°C° 0 mm 1 m/s 736 mmHg 85%
    01:00 +11°C° 0 mm 1 m/s 736 mmHg 85%
    02:00 +11°C° 0 mm 1 m/s 736 mmHg 84%
    03:00 +11°C° 0 mm 1 m/s 736 mmHg 84%
    04:00 +11°C° 0 mm 1 m/s 736 mmHg 84%
    05:00 +10°C° 0 mm 1 m/s 736 mmHg 83%
    06:00 +10°C° 0 mm 1 m/s 736 mmHg 82%
    07:00 +10°C° 0 mm 1 m/s 736 mmHg 82%
    08:00 +12°C° 0 mm 1 m/s 736 mmHg 76%
    09:00 +14°C° 0 mm 1 m/s 736 mmHg 69%
    10:00 +14°C° 0 mm 0 m/s 736 mmHg 63%
    11:00 +15°C° 0 mm 0 m/s 736 mmHg 62%
    12:00 +16°C° 0 mm 1 m/s 735 mmHg 61%
    13:00 +16°C° 0 mm 1 m/s 735 mmHg 60%
    14:00 +15°C° 0 mm 1 m/s 735 mmHg 65%
    15:00 +15°C° 0 mm 1 m/s 735 mmHg 71%
    16:00 +13°C° 0 mm 0 m/s 735 mmHg 76%
    17:00 +14°C° 0 mm 1 m/s 735 mmHg 77%
    18:00 +13°C° 0 mm 1 m/s 735 mmHg 77%
    19:00 +13°C° 0 mm 1 m/s 736 mmHg 77%
    20:00 +13°C° 0 mm 1 m/s 736 mmHg 76%
    21:00 +12°C° 0 mm 1 m/s 736 mmHg 76%
    22:00 +12°C° 0 mm 1 m/s 736 mmHg 75%
    23:00 +12°C° 0 mm 1 m/s 736 mmHg 75%

    22 Novembre, Vendredi

    Heure Température Précipitation Vent Pression Humidité
    00:00 +11°C° 0 mm 1 m/s 736 mmHg 75%
    01:00 +11°C° 0 mm 1 m/s 736 mmHg 75%
    02:00 +11°C° 0 mm 1 m/s 736 mmHg 75%
    03:00 +11°C° 0 mm 1 m/s 736 mmHg 75%
    04:00 +11°C° 0 mm 1 m/s 736 mmHg 76%
    05:00 +11°C° 0 mm 1 m/s 737 mmHg 76%
    06:00 +9°C° 0 mm 2 m/s 737 mmHg 77%
    07:00 +9°C° 0 mm 2 m/s 737 mmHg 77%
    08:00 +12°C° 0 mm 2 m/s 737 mmHg 71%
    09:00 +14°C° 0 mm 1 m/s 737 mmHg 66%
    10:00 +16°C° 0 mm 1 m/s 738 mmHg 60%
    11:00 +16°C° 0 mm 1 m/s 737 mmHg 57%
    12:00 +18°C° 0 mm 1 m/s 737 mmHg 53%
    13:00 +19°C° 0 mm 1 m/s 737 mmHg 50%
    14:00 +18°C° 0 mm 1 m/s 737 mmHg 55%
    15:00 +15°C° 0 mm 1 m/s 737 mmHg 61%
    16:00 +14°C° 0 mm 1 m/s 737 mmHg 66%
    17:00 +14°C° 0 mm 1 m/s 737 mmHg 67%
    18:00 +13°C° 0 mm 1 m/s 737 mmHg 68%
    19:00 +12°C° 0 mm 2 m/s 738 mmHg 69%
    20:00 +12°C° 0 mm 2 m/s 738 mmHg 70%
    21:00 +12°C° 0 mm 2 m/s 738 mmHg 71%
    22:00 +12°C° 0 mm 2 m/s 738 mmHg 72%
    23:00 +12°C° 0 mm 2 m/s 738 mmHg 74%
    Voir plus